www.pogodaiklimat.ru

Погода и климат >> Архив погоды >> Беларусь >> Ганцевичи


ПОГОДА в Ганцевичах

  • Прогноз погоды в Ганцевичах
  • Монитор погоды в Ганцевичах

АРХИВ ПОГОДЫ в Ганцевичах

Время (UTC), дата Ветер
(напр.,м/с)
 
Видим.   Явления Облачность Т
(С)
Тd
(С)
f
(%)
Тe
(С)
Тes
(С)
Комфортность P
(гПа)
Po
(гПа)
Тmin
(С)
Tmax
(С)
R
(мм)
R24
(мм)
S
(см)
06 12.06 штиль 0 20 км ясно +26.3 +19.9 68 +32 +42 очень
душно
1017.0 999.1 +16.1
09 12.06 ЮВ 2 20 км 1/1 1000 м
[Cu hum]
+30.3 +16.3 43 +34 +49 очень
душно
1017.0 999.3
12 12.06 В 1 20 км 4/4 1000 м
[Cu med, cong]
+31.5 +16.2 40 +34 +47 душно 1016.0 998.3
15 12.06 В 1 20 км 4/3 1000 м
[Cu med, cong Ci fib]
+31.9 +16.2 39 +35 +39 очень
душно
1015.0 997.4
18 12.06 В 2 20 км 3/0
[Ci fib]
+27.4 +19.2 61 +33 +33 очень
душно
1015.0 997.2 +31.9
06 13.06 штиль 0 15 км 1/0
[Ci fib]
+24.7 +19.7 74 +30 +40 очень
душно
1017.0 999.0 +16.6
09 13.06 ЮВ 2 20 км 3/3 1000 м
[Cu med, cong]
+31.1 +15.5 39 +34 +45 душно 1017.0 999.3
12 13.06 ЮВ 3 20 км 4/3 1000 м
[Cu med, cong Ci fib]
+32.2 +15.2 36 +34 +43 душно 1017.0 999.4
15 13.06 ЮВ 3 20 км 4/1 1000 м
[Cu hum Ci fib]
+31.5 +13.7 34 +33 +36 жарко 1015.0 997.3
18 13.06 ЮВ 3 20 км 8/0
[Ci fib]
+27.5 +17.3 54 +32 +32 очень
душно
1016.0 998.1 +32.5
06 14.06 ЮЗ 1 20 км ясно +23.6 +17.6 69 +28 +36 душно 1018.0 999.9 +16.8
09 14.06 ЮЗ 3 20 км ясно +29.7 +17.8 49 +34 +47 очень
душно
1018.0 1000.2
12 14.06 ЮЗ 3 20 км 3/3 1000 м
[Cu med, cong]
+31.5 +15.0 37 +34 +42 душно 1017.0 999.3
15 14.06 СЗ 3 20 км {гроза} 8/3 600 м
[Cb calv Ci fib]
+31.1 +15.1 38 +33 +33 душно 1017.0 999.3
18 14.06 штиль 0 20 км {гроза} 8/0 2000 м
[Ac trans Ci fib]
+26.5 +19.9 67 +32 +32 очень
душно
1018.0 1000.1 +31.5
06 15.06 СВ 1 15 км 9/0
[Ci fib]
+23.1 +17.8 72 +29 +29 очень
душно
1018.0 999.8 +18.1
09 15.06 СВ 1 20 км 9/3 1000 м
[Cu hum Ac trans]
+26.6 +15.9 52 +30 +30 душно 1018.0 1000.0
12 15.06 СВ 1 20 км 3/3 1000 м
[Cu hum]
+28.1 +16.0 48 +31 +43 душно 1017.0 999.1
15 15.06 СВ 1 20 км 1/1 1000 м
[Cu hum]
+28.5 +16.7 49 +32 +39 душно 1015.0 997.2
18 15.06 штиль 0 20 км 3/0 2000 м
[Ac trans]
+25.4 +17.3 61 +29 +29 душно 1015.0 997.0 +28.5
06 16.06 ЮВ 3 20 км 9/0
[Ci fib]
+22.2 +13.5 58 +25 +25 комфорт 1014.0 995.8 +16.4
09 16.06 ЮВ 3 20 км 9/0 2000 м
[Ac trans Ci fib]
+25.7 +15.1 52 +29 +29 душно 1014.0 996.0
12 16.06 ЮВ 3 20 км 9/0 2000 м
[Ac trans Ci fib]
+28.9 +16.4 47 +32 +32 душно 1013.0 995.3
15 16.06 З 7-13
{14}
6000 м гроза, ливневой дождь 10/10 840 м
[Cb cap]
+28.3 +16.9 50 +32 +32 душно 1015.0 997.2
18 16.06 СЗ 1
{18}
6000 м дымка {гроза, ливн. осадки} 9/4 600 м
[Cb calv Ac trans]
+18.5 +17.7 95 +20 +20 1014.0 995.6 +28.9 21
06 17.06 СЗ 3 6000 м дымка 9/8 240 м
[St Ac trans]
+19.8 +17.8 88 +23 +23 комфорт 1017.0 998.6 +15.9
09 17.06 СЗ 2 10 км 9/9 540 м
[Sc]
+21.4 +17.2 77 +25 +25 комфорт 1017.0 998.7
12 17.06 З 2 15 км 9/9 720 м
[Sc]
+20.1 +15.3 74 +23 +23 комфорт 1018.0 999.6
15 17.06 СЗ 3 15 км 9/9 1020 м
[Sc]
+20.6 +14.7 69 +24 +24 комфорт 1018.0 999.7
18 17.06 З 1 10 км 10 баллов +19.5 +15.2 76 +22 +22 комфорт 1018.0 999.6 +21.4
06 18.06 СВ 1 10 км 3 балла +18.8 +14.7 77 +21 +27 комфорт 1020.0 1001.5 +15.6
09 18.06 С 1 10 км 10 баллов +22.6 +14.2 59 +26 +26 жарко 1020.0 1001.7
12 18.06 СВ 2 10 км 10 баллов +24.7 +14.2 52 +27 +27 жарко 1019.0 1000.9
15 18.06 СВ 1 10 км 3 балла +25.1 +12.3 45 +27 +31 жарко 1018.0 999.9
18 18.06 штиль 0 10 км ясно +23.7 +13.3 52 +26 +26 жарко 1018.0 999.8 +25.1

 

Местоположение метеостанции Ганцевичи (Брестская область, Беларусь): широта 52.75 долгота 26.44 высота над уровнем моря 157 м.

В архиве по умолчанию представлена погода в Ганцевичах за последнюю неделю. Архивные данные за месяц целиком и за предыдущие месяцы, начиная с января 2011 года, Вы можете получить, выбрав интересующий диапазон дат из раскрывающегося списка и нажав кнопку "Ввод!".


*Определитесь, кто Вы:
робот инопланетянин человек

Внимание! Время в таблицах - всемирное. Для получения местного времени необходимо прибавить поправку, которая равна 3 ч.

Смотрите также архив погоды в соседних городах и на ближайших метеорологических станциях:

Погода в Барановичах (Брестская область, Беларусь) (53 км)
Погода в Полесской (Брестская область, Беларусь) (53 км)
Погода в Ивацевичах (Брестская область, Беларусь) (73 км)
Погода в Пинске (Брестская область, Беларусь) (75 км)
Погода в Слуцке (Минская область, Беларусь) (81 км)
Погода в Столбцах (Минская область, Беларусь) (83 км)
Погода в Новогрудке (Гродненская область, Беларусь) (102 км)
Погода в Дрогичине (Брестская область, Беларусь) (109 км)
Погода в Житковичах (Гомельская область, Беларусь) (113 км)
Погода в Пружанах (Брестская область, Беларусь) (133 км)

Пояснения к столбцам:

Ветер - указаны скорость ветра в м/с - средняя за 10 мин, порывы в срок и между сроками (в фигурных скобках) и направление, откуда дует ветер: С - северный, СВ - северо-восточный, В - восточный, ЮВ - юго-восточный, Ю - южный, ЮЗ - юго-западный, З - западный, СЗ - северо-западный.
Видимость - горизонтальная дальность видимости в метрах или километрах. При видимости от 1 до 10 км при отсутствии осадков обычно наблюдается дымка, при ухудшении видимости до 1 км и менее - туман. В сухую погоду видимость может ухудшаться дымом, пылью или мглою.
Явления - указаны атмосферные явления, наблюдавшиеся в срок или в последний час перед сроком; фигурными скобками обозначены явления, наблюдавшиеся между сроками (за 1-3 часа до срока); квадратными скобками обозначены град или гололедные отложения с указанием их диаметра в мм.
Облачность - указаны через наклонную черту общая и нижняя облачность в баллах и высота нижней границы облаков в метрах; квадратными скобками обозначены формы облаков: Ci - перистые, Cs - перисто-слоистые, Cc - перисто-кучевые, Ac - высококучевые, As - высокослоистые, Sc - слоисто-кучевые, Ns - слоисто-дождевые, Cu - кучевые, Cb - кучево-дождевые. Подробнее классификацию облаков см. в Атласе облаков (PDF).
T - Температура воздуха - температура, измеренная на высоте 2 м над землей.
Td - Температура точки росы - температура, при понижении до которой содержащийся в воздухе водяной пар достигнет насыщения.
f - Относительная влажность воздуха - влажноcть воздуха, измеренная на высоте 2 м над землей.
Te - Эффективная температура - температура, которую ощущает одетый по сезону человек в тени. Характеристика душности погоды. При расчете учитывается влияние влажности воздуха и скорости ветра на теплоощущения человека.
Tes - Эффективная температура на солнце - температура, которую ощущает человек, с поправкой на солнечный нагрев. Характеристика знойности погоды. Зависит от высоты солнца над горизонтом, облачности и скорости ветра. Ночью, в пасмурную погоду, а также при ветре 12 м/с и более поправка равна нулю.
P - Атмосферное давление - приведенное к уровню моря атмосферное давление.
Po - Атмосферное давление - измеренное на уровне метеостанции атмосферное давление.
Tmin - Минимальная температура - минимум температуры воздуха на высоте 2 м над землей.
Tmax - Максимальная температура - максимум температуры воздуха на высоте 2 м над землей.
R - Количество осадков - Количество выпавших осадков за период времени, мм. При наведении курсора мыши на число - период времени, за который выпало указанное количество осадков.
R24 - Количество осадков - Количество выпавших осадков за 24 часа, мм.
S - Снежный покров - Высота снежного покрова, см. При наведении курсора мыши на число - состояние снежного покрова и степень покрытия местности в баллах.